GW3762 Weather Reports


Display with metric or nautical units.
time (UTC)temp
F
wind
direction
speed
MPH
gust
MPH
rain 1hr
in
rain 24hr
in
rain mn
in
humidity
%
barometer
mb
20260505174957 74 225 1.0 11.0 0.00 0.00 0.00 56 1010.0
20260505174457 74 223 3.0 8.0 0.00 0.00 0.00 56 1010.1
20260505173958 73 214 2.0 8.0 0.00 0.00 0.00 59 1010.2
20260505173458 74 192 3.0 8.0 0.00 0.00 0.00 57 1010.2
20260505172457 74 244 4.0 11.0 0.00 0.00 0.00 59 1010.4
20260505171458 73 175 1.0 5.0 0.00 0.00 0.00 57 1010.3
20260505170958 74 219 2.0 9.0 0.00 0.00 0.00 58 1010.3
20260505170457 74 298 1.0 10.0 0.00 0.00 0.00 58 1010.3
20260505165457 73 218 4.0 5.0 0.00 0.00 0.00 59 1010.4
20260505164958 72 240 2.0 4.0 0.00 0.00 0.00 61 1010.3
20260505164501 72 202 1.0 7.0 0.00 0.00 0.00 60 1010.6
20260505163957 72 170 0.0 7.0 0.00 0.00 0.00 59 1010.6
20260505162957 73 221 1.0 5.0 0.00 0.00 0.00 62 1010.9
20260505162458 72 240 2.0 4.0 0.00 0.00 0.00 62 1011.0
20260505161957 72 189 2.0 5.0 0.00 0.00 0.00 61 1011.0
20260505161457 72 232 3.0 9.0 0.00 0.00 0.00 65 1011.1
20260505160957 72 225 2.0 9.0 0.00 0.00 0.00 60 1011.1
20260505160458 72 232 3.0 7.0 0.00 0.00 0.00 62 1011.1
20260505152956 71 256 8.0 9.0 0.00 0.00 0.00 62 1011.5
20260505151957 70 227 5.0 7.0 0.00 0.00 0.00 64 1011.7
20260505151456 70 223 3.0 7.0 0.00 0.00 0.00 67 1011.7
20260505150457 69 229 5.0 9.0 0.00 0.00 0.00 67 1011.7
20260505124957 57 240 1.0 2.0 0.00 0.00 0.00 86 1011.4
20260505123957 56 240 0.0 4.0 0.00 0.00 0.00 86 1011.6
20260505123456 56 247 3.0 4.0 0.00 0.00 0.00 87 1011.5
20260505121956 55 257 0.0 3.0 0.00 0.00 0.00 89 1011.7
20260505121456 55 257 2.0 3.0 0.00 0.00 0.00 90 1011.8
20260505120456 54 256 0.0 4.0 0.00 0.00 0.00 91 1011.8
20260505115458 53 232 3.0 5.0 0.00 0.00 0.00 92 1011.8
20260505114957 53 256 2.0 5.0 0.00 0.00 0.00 92 1011.8
20260505114457 52 250 3.0 5.0 0.00 0.00 0.00 92 1011.9
20260505113457 52 263 0.0 4.0 0.00 0.00 0.00 93 1011.9
20260505112957 52 240 0.0 4.0 0.00 0.00 0.00 93 1011.9
20260505111957 51 248 4.0 4.0 0.00 0.00 0.00 93 1012.0
20260505111457 51 257 1.0 3.0 0.00 0.00 0.00 93 1011.9
20260505110957 51 257 2.0 4.0 0.00 0.00 0.00 93 1011.6
20260505101957 50 246 2.0 4.0 0.00 0.00 0.00 93 1010.9
20260505100957 49 250 0.0 3.0 0.00 0.00 0.00 93 1010.6
20260505100457 49 250 1.0 3.0 0.00 0.00 0.00 93 1010.7
20260505095956 49 250 1.0 2.0 0.00 0.00 0.00 93 1010.6
20260505094956 49 250 0.0 2.0 0.00 0.00 0.00 93 1010.7
20260505094456 49 250 1.0 2.0 0.00 0.00 0.00 93 1010.8
20260505093457 49 250 0.0 0.0 0.00 0.00 0.00 93 1010.6
20260505092956 49 250 0.0 0.0 0.00 0.00 0.00 92 1010.6
20260505092456 49 250 0.0 0.0 0.00 0.00 0.00 92 1010.6
20260505091456 49 250 0.0 0.0 0.00 0.00 0.00 92 1010.6
20260505090956 50 250 0.0 1.0 0.00 0.00 0.00 92 1010.6
20260505090456 50 250 0.0 3.0 0.00 0.00 0.00 92 1010.5
20260505085959 50 250 2.0 3.0 0.00 0.00 0.00 92 1010.5
20260505085457 50 250 2.0 4.0 0.00 0.00 0.00 92 1010.5
20260505084957 50 250 1.0 4.0 0.00 0.00 0.00 92 1010.6
20260505084458 50 238 3.0 4.0 0.00 0.00 0.00 92 1010.6
20260505083957 50 234 2.0 5.0 0.00 0.00 0.00 92 1010.6
20260505083457 50 248 4.0 5.0 0.00 0.00 0.00 92 1010.7
20260505082957 50 237 2.0 4.0 0.00 0.00 0.00 92 1010.8
20260505082457 50 245 3.0 4.0 0.00 0.00 0.00 92 1010.9
20260505081457 50 232 2.0 4.0 0.00 0.00 0.00 91 1010.9
20260505080456 50 220 2.0 3.0 0.00 0.00 0.00 91 1010.7
20260505075955 50 220 3.0 3.0 0.00 0.00 0.00 91 1010.7
20260505075457 50 219 1.0 3.0 0.00 0.00 0.00 91 1010.6
20260505074956 50 198 2.0 3.0 0.00 0.00 0.00 91 1010.6
20260505074456 50 198 3.0 3.0 0.00 0.00 0.00 90 1010.6
20260505073956 50 198 3.0 3.0 0.00 0.00 0.00 90 1010.6
20260505073455 50 198 2.0 3.0 0.00 0.00 0.00 90 1010.7
20260505072956 50 197 2.0 3.0 0.00 0.00 0.00 90 1010.7
20260505072456 50 181 0.0 2.0 0.00 0.00 0.00 90 1010.6
20260505071955 50 180 0.0 0.0 0.00 0.00 0.00 89 1010.7
20260505071455 50 168 0.0 0.0 0.00 0.00 0.00 89 1010.7
20260505070956 51 168 0.0 1.0 0.00 0.00 0.00 89 1010.8
20260505070456 51 168 0.0 2.0 0.00 0.00 0.00 88 1010.7
20260505065959 51 168 0.0 2.0 0.00 0.00 0.00 88 1010.9
20260505065457 51 168 0.0 2.0 0.00 0.00 0.00 88 1010.8
20260505064957 51 163 0.0 2.0 0.00 0.00 0.00 88 1010.9
20260505064458 51 205 0.0 3.0 0.00 0.00 0.00 87 1010.9
20260505063957 51 205 1.0 3.0 0.00 0.00 0.00 87 1011.0
20260505063457 51 205 0.0 3.0 0.00 0.00 0.00 87 1011.0
20260505062956 51 205 0.0 3.0 0.00 0.00 0.00 87 1011.0
20260505062457 51 205 1.0 3.0 0.00 0.00 0.00 86 1011.0
20260505061956 51 205 2.0 3.0 0.00 0.00 0.00 86 1011.0
20260505061500 51 204 2.0 2.0 0.00 0.00 0.00 86 1010.9
20260505060957 51 204 0.0 2.0 0.00 0.00 0.00 85 1011.0
20260505060457 51 240 1.0 2.0 0.00 0.00 0.00 85 1011.1
20260505055958 51 240 1.0 2.0 0.00 0.00 0.00 85 1011.1
20260505054956 51 241 0.0 1.0 0.00 0.00 0.00 84 1011.1
20260505054455 51 241 0.0 1.0 0.00 0.00 0.00 84 1011.2
20260505053956 51 241 1.0 2.0 0.00 0.00 0.00 84 1011.3
20260505053455 51 241 0.0 2.0 0.00 0.00 0.00 83 1011.2
20260505051456 52 243 0.0 0.0 0.00 0.00 0.00 82 1011.3
20260505041458 51 243 0.0 1.0 0.00 0.00 0.00 80 1011.7
20260505040959 51 243 0.0 2.0 0.00 0.00 0.00 79 1011.7
20260505040458 52 244 0.0 2.0 0.00 0.00 0.00 78 1011.7
20260505035457 52 243 0.0 2.0 0.00 0.00 0.00 78 1011.7
20260505034457 52 243 1.0 3.0 0.00 0.00 0.00 78 1011.6
20260505033958 52 243 3.0 3.0 0.00 0.00 0.00 78 1011.6
20260505033458 52 243 2.0 3.0 0.00 0.00 0.00 78 1011.6
20260505032958 52 244 1.0 3.0 0.00 0.00 0.00 78 1011.6
20260505032458 53 244 3.0 3.0 0.00 0.00 0.00 78 1011.6
20260505031958 52 244 2.0 3.0 0.00 0.00 0.00 78 1011.6
20260505031458 53 244 2.0 3.0 0.00 0.00 0.00 78 1011.6
20260505030957 53 244 2.0 4.0 0.00 0.00 0.00 78 1011.6
20260505030458 52 244 2.0 4.0 0.00 0.00 0.00 78 1011.7
20260505024958 53 236 2.0 4.0 0.00 0.00 0.00 77 1011.6
20260505023958 53 230 2.0 4.0 0.00 0.00 0.00 77 1011.6
20260505023457 53 230 2.0 4.0 0.00 0.00 0.00 77 1011.6
20260505022958 53 252 2.0 5.0 0.00 0.00 0.00 77 1011.7
20260505022458 53 242 3.0 5.0 0.00 0.00 0.00 77 1011.7
20260505021958 53 231 2.0 5.0 0.00 0.00 0.00 77 1011.7
20260505021457 53 236 3.0 5.0 0.00 0.00 0.00 78 1011.8
20260505020958 53 241 4.0 5.0 0.00 0.00 0.00 77 1011.7
20260505020457 53 247 3.0 5.0 0.00 0.00 0.00 77 1011.7
20260505020000 53 240 3.0 5.0 0.00 0.00 0.00 78 1011.6
20260505015000 53 232 3.0 5.0 0.00 0.00 0.00 78 1011.6
20260505014458 53 234 3.0 5.0 0.00 0.00 0.00 78 1011.6
20260505014003 53 234 3.0 5.0 0.00 0.00 0.00 78 1011.6
20260505013459 53 228 2.0 4.0 0.00 0.00 0.00 78 1011.6
20260505012959 53 232 1.0 5.0 0.00 0.00 0.00 78 1011.5
20260505012459 53 240 3.0 5.0 0.00 0.00 0.00 78 1011.5
20260505012002 53 236 3.0 5.0 0.00 0.00 0.00 77 1011.5
20260505010959 53 248 1.0 6.0 0.00 0.00 0.00 77 1011.4
20260505010458 53 238 1.0 4.0 0.00 0.00 0.00 76 1011.3
20260505005959 54 259 2.0 5.0 0.00 0.00 0.00 75 1011.2
20260505005458 54 238 2.0 5.0 0.00 0.00 0.00 75 1011.1
20260505003958 54 233 2.0 8.0 0.00 0.00 0.00 73 1011.1
20260505003457 54 229 3.0 9.0 0.00 0.00 0.00 72 1011.0
20260505002958 55 231 5.0 9.0 0.00 0.00 0.00 72 1010.9
20260505002458 55 232 4.0 8.0 0.00 0.00 0.00 71 1010.8
20260505002000 55 243 6.0 11.0 0.00 0.00 0.00 71 1010.6
20260505001458 55 234 5.0 11.0 0.00 0.00 0.00 70 1010.6
20260505000458 56 261 3.0 7.0 0.00 0.00 0.00 68 1010.4
20260504235958 56 218 4.0 7.0 0.00 0.00 0.00 68 1010.3
20260504235459 56 230 4.0 7.0 0.00 0.00 0.00 67 1010.3
20260504234459 57 229 4.0 6.0 0.00 0.00 0.00 66 1010.2
20260504233959 57 238 5.0 8.0 0.00 0.00 0.00 65 1010.1
20260504233459 57 229 3.0 6.0 0.00 0.00 0.00 65 1010.1
20260504232958 58 244 4.0 7.0 0.00 0.00 0.00 64 1010.0
20260504232459 58 238 4.0 9.0 0.00 0.00 0.00 64 1010.0
20260504231958 58 227 4.0 9.0 0.00 0.00 0.00 63 1009.9
20260504231458 59 234 6.0 10.0 0.00 0.00 0.00 62 1010.0
20260504230959 59 254 8.0 8.0 0.00 0.00 0.00 63 1009.9
20260504225458 60 232 3.0 5.0 0.00 0.00 0.00 61 1009.8
20260504224457 60 217 5.0 8.0 0.00 0.00 0.00 60 1009.7
20260504223957 61 189 1.0 6.0 0.00 0.00 0.00 59 1009.8
20260504223457 61 240 4.0 7.0 0.00 0.00 0.00 59 1009.7
20260504222458 61 184 0.0 10.0 0.00 0.00 0.00 59 1009.7
20260504221958 61 226 6.0 10.0 0.00 0.00 0.00 58 1009.8
20260504220958 62 231 6.0 14.0 0.00 0.00 0.00 57 1009.9
20260504220458 62 232 8.0 14.0 0.00 0.00 0.00 56 1009.9
20260504215957 62 232 4.0 13.0 0.00 0.00 0.00 55 1009.8
20260504214957 63 235 9.0 16.0 0.00 0.00 0.00 54 1009.9
20260504214457 63 225 11.0 15.0 0.00 0.00 0.00 54 1009.8
20260504213957 63 242 4.0 16.0 0.00 0.00 0.00 53 1009.9
20260504213458 63 228 5.0 16.0 0.00 0.00 0.00 53 1009.7
20260504212958 64 250 7.0 11.0 0.00 0.00 0.00 53 1009.9
20260504212458 64 227 1.0 10.0 0.00 0.00 0.00 53 1009.8
20260504211957 64 245 7.0 10.0 0.00 0.00 0.00 54 1009.8
20260504211458 63 234 4.0 8.0 0.00 0.00 0.00 53 1009.6
20260504210959 63 198 2.0 8.0 0.00 0.00 0.00 53 1009.8
20260504210457 63 195 1.0 8.0 0.00 0.00 0.00 53 1009.8
20260504210000 63 215 4.0 10.0 0.00 0.00 0.00 52 1009.7
20260504205457 64 269 3.0 10.0 0.00 0.00 0.00 53 1009.6
20260504204958 64 250 3.0 6.0 0.00 0.00 0.00 52 1009.6
20260504204458 64 109 4.0 10.0 0.00 0.00 0.00 50 1009.6
20260504203959 65 183 4.0 14.0 0.00 0.00 0.00 51 1009.7
20260504203457 66 234 3.0 14.0 0.00 0.00 0.00 48 1009.6
20260504203000 67 193 1.0 9.0 0.00 0.00 0.00 49 1009.6
20260504202458 67 222 1.0 9.0 0.00 0.00 0.00 49 1009.7
20260504201957 67 209 1.0 9.0 0.00 0.00 0.00 46 1009.7
20260504201458 67 265 3.0 9.0 0.00 0.00 0.00 49 1009.7
20260504200959 67 230 3.0 9.0 0.00 0.00 0.00 45 1009.6
20260504195957 68 266 6.0 14.0 0.00 0.00 0.00 43 1009.7
20260504194458 68 221 3.0 14.0 0.00 0.00 0.00 43 1009.7
20260504193957 68 194 3.0 18.0 0.00 0.00 0.00 44 1009.7
20260504193457 68 252 11.0 13.0 0.00 0.00 0.00 43 1009.6
20260504192957 68 271 7.0 13.0 0.00 0.00 0.00 42 1009.7
20260504192458 68 232 5.0 13.0 0.00 0.00 0.00 43 1009.7
20260504191958 68 238 4.0 14.0 0.00 0.00 0.00 43 1009.9
20260504191458 68 236 7.0 14.0 0.00 0.00 0.00 42 1009.8
20260504190958 69 241 8.0 16.0 0.00 0.00 0.00 40 1009.9
20260504190458 69 239 4.0 10.0 0.00 0.00 0.00 44 1009.9
20260504185959 69 219 3.0 10.0 0.00 0.00 0.00 43 1009.9
20260504184957 69 242 6.0 11.0 0.00 0.00 0.00 43 1010.0
20260504184457 69 220 2.0 12.0 0.00 0.00 0.00 42 1010.0
20260504183958 69 208 6.0 13.0 0.00 0.00 0.00 41 1010.0
20260504183457 69 242 8.0 13.0 0.00 0.00 0.00 42 1009.9
20260504182957 69 229 5.0 12.0 0.00 0.00 0.00 39 1010.1
20260504182458 68 237 6.0 12.0 0.00 0.00 0.00 43 1010.2
20260504181958 68 250 7.0 13.0 0.00 0.00 0.00 42 1010.2
20260504181458 69 223 6.0 13.0 0.00 0.00 0.00 43 1010.2
20260504180957 69 254 7.0 14.0 0.00 0.00 0.00 42 1010.4
20260504180457 69 233 6.0 13.0 0.00 0.00 0.00 41 1010.4
20260504175956 69 234 3.0 13.0 0.00 0.00 0.00 42 1010.4
20260504175457 69 214 5.0 13.0 0.00 0.00 0.00 43 1010.5